GW5236 Weather Reports


Display with metric or nautical units.
time (UTC)temp
F
wind
direction
speed
MPH
gust
MPH
rain 1hr
in
rain 24hr
in
rain mn
in
humidity
%
barometer
mb
20260904085009 71 188 0.0 2.0 0.00 0.00 0.00 94 1014.8
20260904084509 71 188 0.0 2.0 0.00 0.00 0.00 94 1015.0
20260904084006 70 188 0.0 2.0 0.00 0.00 0.00 94 1015.1
20260904083506 70 188 0.0 2.0 0.00 0.00 0.00 94 1015.1
20260904083005 70 188 0.0 2.0 0.00 0.00 0.00 94 1015.0
20260904082504 70 188 0.0 0.0 0.00 0.00 0.00 93 1015.0
20260904082004 70 188 0.0 0.0 0.00 0.00 0.00 93 1015.0
20260904081514 71 188 0.0 0.0 0.00 0.00 0.00 93 1015.0
20260904081004 71 188 0.0 0.0 0.00 0.00 0.00 93 1015.1
20260904080506 71 188 0.0 1.0 0.00 0.00 0.00 93 1015.3
20260904080015 71 188 0.0 2.0 0.00 0.00 0.00 93 1015.3
20260904075503 71 188 0.0 2.0 0.00 0.00 0.00 93 1015.3
20260904075005 71 188 0.0 2.0 0.00 0.00 0.00 93 1015.3
20260904074521 71 188 0.0 2.0 0.00 0.00 0.00 93 1015.2
20260904074006 71 188 0.0 2.0 0.00 0.00 0.00 92 1015.4
20260904073508 71 188 0.0 0.0 0.00 0.00 0.00 92 1015.4
20260904073015 71 188 0.0 0.0 0.00 0.00 0.00 92 1015.5
20260904072506 71 188 0.0 0.0 0.00 0.00 0.00 92 1015.6
20260904072004 71 188 0.0 2.0 0.00 0.00 0.00 92 1015.5
20260904071507 72 188 0.0 2.0 0.00 0.00 0.00 91 1015.5
20260904071008 72 188 0.0 2.0 0.00 0.00 0.00 92 1015.7
20260904070504 72 188 0.0 2.0 0.00 0.00 0.00 92 1015.8
20260904070017 71 188 0.0 2.0 0.00 0.00 0.00 92 1015.6
20260904065511 71 188 1.0 2.0 0.00 0.00 0.00 92 1015.6
20260904065007 71 222 0.0 2.0 0.00 0.00 0.00 92 1015.6
20260904064517 71 222 0.0 2.0 0.00 0.00 0.00 92 1015.8
20260904064005 71 223 0.0 2.0 0.00 0.00 0.00 92 1015.9
20260904063508 71 144 0.0 2.0 0.00 0.00 0.00 92 1015.9
20260904063016 72 265 0.0 2.0 0.00 0.00 0.00 92 1015.7
20260904062508 72 235 0.0 2.0 0.00 0.00 0.00 92 1015.7
20260904062012 71 165 1.0 3.0 0.00 0.00 0.00 92 1015.6
20260904061522 71 167 1.0 3.0 0.00 0.00 0.00 92 1015.9
20260904061006 71 191 0.0 2.0 0.00 0.00 0.00 92 1016.0
20260904060506 71 191 0.0 2.0 0.00 0.00 0.00 93 1016.0
20260904060010 71 191 1.0 2.0 0.00 0.00 0.00 93 1016.0
20260904055507 71 199 0.0 2.0 0.00 0.00 0.00 93 1016.0
20260904055007 71 199 0.0 1.0 0.00 0.00 0.00 93 1016.1
20260904054520 71 259 0.0 2.0 0.00 0.00 0.00 93 1016.3
20260904054008 71 259 0.0 2.0 0.00 0.00 0.00 93 1016.2
20260904053508 71 173 0.0 2.0 0.00 0.00 0.00 92 1016.2
20260904053023 71 173 0.0 2.0 0.00 0.00 0.00 92 1016.2
20260904052510 72 173 0.0 2.0 0.00 0.00 0.00 92 1016.3
20260904052009 72 173 0.0 2.0 0.00 0.00 0.00 92 1016.3
20260904051528 72 173 0.0 2.0 0.00 0.00 0.00 92 1016.2
20260904051009 72 173 0.0 2.0 0.00 0.00 0.00 92 1016.3
20260904050509 72 173 0.0 2.0 0.00 0.00 0.00 92 1016.4
20260904050017 72 173 0.0 2.0 0.00 0.00 0.00 92 1016.4
20260904045507 72 173 0.0 2.0 0.00 0.00 0.00 92 1016.4
20260904045011 72 173 0.0 2.0 0.00 0.00 0.00 92 1016.3
20260904044526 72 173 0.0 0.0 0.00 0.00 0.00 92 1016.3
20260904044027 72 173 0.0 1.0 0.00 0.00 0.00 91 1016.3
20260904043513 72 173 0.0 2.0 0.00 0.00 0.00 92 1016.4
20260904043021 72 173 0.0 2.0 0.00 0.00 0.00 92 1016.3
20260904042510 72 173 0.0 0.0 0.00 0.00 0.00 91 1016.3
20260904042010 72 173 0.0 2.0 0.00 0.00 0.00 91 1016.3
20260904041534 72 173 0.0 2.0 0.00 0.00 0.00 91 1016.2
20260904041009 72 173 0.0 2.0 0.00 0.00 0.00 91 1016.2
20260904040511 72 173 0.0 2.0 0.00 0.00 0.00 91 1016.2
20260904040018 73 154 0.0 2.0 0.00 0.00 0.00 91 1016.1
20260904035510 73 283 0.0 1.0 0.00 0.00 0.00 91 1016.2
20260904035011 73 283 0.0 2.0 0.00 0.00 0.00 91 1016.1
20260904034524 73 283 0.0 2.0 0.00 0.00 0.00 91 1016.2
20260904034008 73 283 0.0 2.0 0.00 0.00 0.00 91 1016.2
20260904033508 73 283 0.0 2.0 0.00 0.00 0.00 91 1016.1
20260904033019 73 283 0.0 2.0 0.00 0.00 0.00 91 1016.2
20260904032508 73 283 0.0 0.0 0.00 0.00 0.00 91 1016.2
20260904032012 73 283 0.0 1.0 0.00 0.00 0.00 91 1016.2
20260904031527 73 283 0.0 2.0 0.00 0.00 0.00 91 1016.2
20260904031014 73 283 0.0 2.0 0.00 0.00 0.00 91 1016.4
20260904030509 73 283 0.0 2.0 0.00 0.00 0.00 91 1016.4
20260904030028 73 283 0.0 2.0 0.00 0.00 0.00 90 1016.2
20260904025512 73 283 0.0 2.0 0.00 0.00 0.00 90 1016.4
20260904025012 73 283 0.0 2.0 0.00 0.00 0.00 90 1016.5
20260904024524 73 283 0.0 2.0 0.00 0.00 0.00 90 1016.5
20260904024011 73 283 0.0 0.0 0.00 0.00 0.00 89 1016.5
20260904023515 73 283 0.0 0.0 0.00 0.00 0.00 89 1016.6
20260904023019 73 283 0.0 2.0 0.00 0.00 0.00 89 1016.5
20260904022511 74 283 0.0 2.0 0.00 0.00 0.00 88 1016.4
20260904022011 74 283 0.0 2.0 0.00 0.00 0.00 88 1016.4
20260904021527 74 283 0.0 2.0 0.00 0.00 0.00 87 1016.4
20260904021010 74 283 0.0 2.0 0.00 0.00 0.00 87 1016.5
20260904020513 74 283 0.0 2.0 0.00 0.00 0.00 86 1016.4
20260904020039 74 283 0.0 1.0 0.00 0.00 0.00 86 1016.4
20260904015514 75 283 0.0 2.0 0.00 0.00 0.00 86 1016.4
20260904015011 75 283 0.0 2.0 0.00 0.00 0.00 85 1016.5
20260904014510 75 283 0.0 2.0 0.00 0.00 0.00 85 1016.5
20260904014006 75 283 0.0 2.0 0.00 0.00 0.00 84 1016.5
20260904013507 75 283 0.0 2.0 0.00 0.00 0.00 84 1016.6
20260904013017 76 283 0.0 2.0 0.00 0.00 0.00 83 1016.4
20260904012509 76 283 0.0 2.0 0.00 0.00 0.00 82 1016.4
20260904012009 76 221 0.0 4.0 0.00 0.00 0.00 82 1016.5
20260904011524 76 288 0.0 4.0 0.00 0.00 0.00 82 1016.6
20260904011010 76 264 1.0 5.0 0.00 0.00 0.00 81 1016.3
20260904010514 77 25 1.0 5.0 0.00 0.00 0.00 81 1016.2
20260904010028 77 350 2.0 6.0 0.00 0.00 0.00 79 1016.2
20260904005512 77 35 1.0 6.0 0.00 0.00 0.00 79 1016.2
20260904005013 77 352 2.0 10.0 0.00 0.00 0.00 1016.4
20260904004533 78 19 2.0 10.0 0.00 0.00 0.00 1016.2
20260904004011 79 338 3.0 6.0 0.00 0.00 0.00 1016.1
20260904003508 80 65 1.0 13.0 0.00 0.00 0.00 74 1016.1
20260904003014 80 347 3.0 13.0 0.00 0.00 0.00 74 1016.0
20260904002508 81 348 1.0 3.0 0.00 0.00 0.00 75 1016.0
20260904002010 82 46 1.0 9.0 0.00 0.00 0.00 75 1015.6
20260904001524 82 24 3.0 9.0 0.00 0.00 0.00 74 1015.6
20260904001011 83 155 0.0 2.0 0.00 0.00 0.00 77 1015.5
20260904000511 84 155 0.0 2.0 0.00 0.00 0.00 76 1015.4
20260904000028 84 155 0.0 2.0 0.00 0.00 0.00 73 1015.6
20260903235515 85 155 0.0 2.0 0.00 0.00 0.00 72 1015.6
20260903235018 86 155 0.0 2.0 0.00 0.00 0.00 69 1015.7
20260903234530 86 155 0.0 2.0 0.00 0.00 0.00 69 1015.6
20260903234014 86 155 0.0 2.0 0.00 0.00 0.00 68 1015.6
20260903233514 87 155 1.0 3.0 0.00 0.00 0.00 67 1015.5
20260903233034 87 178 1.0 3.0 0.00 0.00 0.00 67 1015.6
20260903232506 87 277 0.0 3.0 0.00 0.00 0.00 67 1015.5
20260903232008 87 228 1.0 3.0 0.00 0.00 0.00 67 1015.2
20260903231518 88 231 0.0 3.0 0.00 0.00 0.00 66 1015.2
20260903231009 88 248 0.0 3.0 0.00 0.00 0.00 66 1015.2
20260903230511 88 156 1.0 4.0 0.00 0.00 0.00 65 1015.2
20260903230033 88 189 1.0 4.0 0.00 0.00 0.00 64 1015.2
20260903225513 89 192 1.0 4.0 0.00 0.00 0.00 64 1015.3
20260903225014 89 207 0.0 2.0 0.00 0.00 0.00 64 1015.4
20260903224527 90 248 0.0 2.0 0.00 0.00 0.00 63 1015.3
20260903224016 90 294 1.0 3.0 0.00 0.00 0.00 63 1015.3
20260903223517 90 268 1.0 5.0 0.00 0.00 0.00 61 1015.3
20260903223030 91 269 2.0 5.0 0.00 0.00 0.00 60 1015.2
20260903222520 91 219 1.0 5.0 0.00 0.00 0.00 60 1015.1
20260903222019 91 324 1.0 7.0 0.00 0.00 0.00 60 1015.1
20260903221538 91 215 1.0 7.0 0.00 0.00 0.00 59 1015.1
20260903221008 91 285 2.0 7.0 0.00 0.00 0.00 59 1015.2
20260903220508 91 281 1.0 4.0 0.00 0.00 0.00 58 1015.1
20260903220045 92 294 2.0 6.0 0.00 0.00 0.00 57 1015.0
20260903215510 92 313 2.0 8.0 0.00 0.00 0.00 56 1015.0
20260903215011 92 284 4.0 8.0 0.00 0.00 0.00 56 1015.0
20260903214527 92 234 3.0 9.0 0.00 0.00 0.00 56 1015.1
20260903214015 92 286 3.0 9.0 0.00 0.00 0.00 55 1015.0
20260903213516 92 269 2.0 8.0 0.00 0.00 0.00 57 1014.9
20260903213031 92 269 2.0 9.0 0.00 0.00 0.00 55 1014.9
20260903212515 92 302 4.0 9.0 0.00 0.00 0.00 55 1014.5
20260903212019 93 265 3.0 10.0 0.00 0.00 0.00 57 1014.3
20260903211533 93 300 2.0 10.0 0.00 0.00 0.00 56 1014.2
20260903211016 93 190 2.0 8.0 0.00 0.00 0.00 55 1014.2
20260903210517 93 224 3.0 10.0 0.00 0.00 0.00 55 1014.0
20260903210018 93 162 3.0 10.0 0.00 0.00 0.00 56 1014.2
20260903205512 92 283 3.0 11.0 0.00 0.00 0.00 56 1014.1
20260903205012 93 213 5.0 11.0 0.00 0.00 0.00 54 1014.1
20260903204525 93 178 1.0 12.0 0.00 0.00 0.00 55 1014.2
20260903204015 93 269 2.0 12.0 0.00 0.00 0.00 56 1014.2
20260903203522 93 15 5.0 12.0 0.00 0.00 0.00 54 1014.2
20260903203032 93 111 4.0 12.0 0.00 0.00 0.00 54 1014.2
20260903202516 92 222 1.0 8.0 0.00 0.00 0.00 58 1014.2
20260903202018 92 282 3.0 11.0 0.00 0.00 0.00 58 1014.3
20260903201533 92 270 3.0 11.0 0.00 0.00 0.00 57 1014.4
20260903201015 92 251 3.0 10.0 0.00 0.00 0.00 57 1014.6
20260903200514 92 247 3.0 11.0 0.00 0.00 0.00 58 1014.8
20260903200043 92 284 3.0 11.0 0.00 0.00 0.00 59 1015.0
20260903195514 92 192 2.0 10.0 0.00 0.00 0.00 59 1015.0
20260903195018 92 171 2.0 6.0 0.00 0.00 0.00 56 1015.1
20260903194535 93 226 2.0 9.0 0.00 0.00 0.00 56 1015.3
20260903194010 93 222 3.0 11.0 0.00 0.00 0.00 56 1015.3
20260903193513 93 263 3.0 11.0 0.00 0.00 0.00 57 1015.4
20260903193030 93 138 3.0 10.0 0.00 0.00 0.00 57 1015.5
20260903192520 93 98 5.0 10.0 0.00 0.00 0.00 56 1015.7
20260903192015 93 206 4.0 8.0 0.00 0.00 0.00 57 1015.8
20260903191540 93 241 3.0 8.0 0.00 0.00 0.00 56 1015.9
20260903191018 93 237 2.0 8.0 0.00 0.00 0.00 55 1015.9
20260903190508 93 230 4.0 11.0 0.00 0.00 0.00 54 1016.0
20260903190014 92 192 4.0 11.0 0.00 0.00 0.00 54 1016.0
20260903185507 93 258 4.0 11.0 0.00 0.00 0.00 53 1015.9
20260903185011 93 248 4.0 8.0 0.00 0.00 0.00 59 1016.0
20260903184523 93 290 2.0 12.0 0.00 0.00 0.00 58 1016.1
20260903184012 93 328 3.0 12.0 0.00 0.00 0.00 55 1016.1
20260903183511 93 274 3.0 8.0 0.00 0.00 0.00 57 1016.0
20260903183038 93 198 2.0 9.0 0.00 0.00 0.00 58 1016.0
20260903182517 92 266 2.0 9.0 0.00 0.00 0.00 60 1016.1
20260903182015 92 280 3.0 9.0 0.00 0.00 0.00 59 1016.1
20260903181530 92 111 3.0 9.0 0.00 0.00 0.00 59 1016.3
20260903181016 92 186 2.0 8.0 0.00 0.00 0.00 61 1016.4
20260903180518 92 268 3.0 11.0 0.00 0.00 0.00 59 1016.3
20260903180036 92 284 4.0 11.0 0.00 0.00 0.00 59 1016.3
20260903175518 92 208 3.0 9.0 0.00 0.00 0.00 58 1016.5
20260903175008 92 187 1.0 7.0 0.00 0.00 0.00 61 1016.7
20260903174522 92 263 3.0 8.0 0.00 0.00 0.00 59 1016.8
20260903174013 92 273 3.0 8.0 0.00 0.00 0.00 59 1016.6
20260903173509 92 198 3.0 8.0 0.00 0.00 0.00 59 1016.7
20260903173027 92 188 2.0 8.0 0.00 0.00 0.00 60 1016.7
20260903172513 92 262 3.0 7.0 0.00 0.00 0.00 60 1016.7
20260903172011 92 198 2.0 7.0 0.00 0.00 0.00 60 1016.7
20260903171529 92 284 2.0 4.0 0.00 0.00 0.00 60 1016.7
20260903171014 91 279 2.0 8.0 0.00 0.00 0.00 63 1016.7
20260903170514 91 310 2.0 8.0 0.00 0.00 0.00 61 1016.8
20260903170033 91 304 2.0 8.0 0.00 0.00 0.00 61 1016.8
20260903165515 91 216 1.0 8.0 0.00 0.00 0.00 63 1016.9
20260903165018 91 250 3.0 8.0 0.00 0.00 0.00 64 1016.8
20260903164533 91 307 2.0 7.0 0.00 0.00 0.00 63 1016.9
20260903164011 91 261 2.0 9.0 0.00 0.00 0.00 64 1016.9
20260903163514 90 263 2.0 9.0 0.00 0.00 0.00 62 1016.9
20260903163024 90 238 1.0 8.0 0.00 0.00 0.00 64 1017.0
20260903162510 90 265 3.0 8.0 0.00 0.00 0.00 63 1017.1
20260903162012 90 223 3.0 8.0 0.00 0.00 0.00 64 1017.1
20260903161537 90 290 2.0 6.0 0.00 0.00 0.00 67 1017.1
20260903161013 90 290 2.0 7.0 0.00 0.00 0.00 67 1017.2
20260903160516 89 250 3.0 7.0 0.00 0.00 0.00 67 1017.1
20260903160031 89 282 4.0 7.0 0.00 0.00 0.00 66 1017.2
20260903155520 89 314 2.0 6.0 0.00 0.00 0.00 67 1017.2
20260903155015 89 279 3.0 7.0 0.00 0.00 0.00 65 1017.2
20260903154534 89 258 2.0 8.0 0.00 0.00 0.00 66 1017.3
20260903154021 89 271 3.0 8.0 0.00 0.00 0.00 68 1017.2
20260903153515 88 159 4.0 8.0 0.00 0.00 0.00 67 1017.4
20260903153018 88 215 1.0 8.0 0.00 0.00 0.00 70 1017.3
20260903152510 88 183 2.0 10.0 0.00 0.00 0.00 69 1017.3
20260903152009 88 232 2.0 10.0 0.00 0.00 0.00 69 1017.2
20260903151527 88 178 2.0 8.0 0.00 0.00 0.00 71 1017.3
20260903151012 87 182 2.0 7.0 0.00 0.00 0.00 70 1017.2
20260903150514 87 189 2.0 9.0 0.00 0.00 0.00 68 1017.2
20260903150031 87 179 3.0 9.0 0.00 0.00 0.00 70 1017.2
20260903145516 87 277 2.0 6.0 0.00 0.00 0.00 71 1017.2
20260903145018 86 284 2.0 6.0 0.00 0.00 0.00 72 1017.2
20260903144531 86 284 1.0 6.0 0.00 0.00 0.00 72 1017.2
20260903144018 86 306 3.0 6.0 0.00 0.00 0.00 72 1017.2
20260903143517 85 213 2.0 7.0 0.00 0.00 0.00 72 1017.2
20260903143041 85 282 4.0 7.0 0.00 0.00 0.00 71 1017.2
20260903142519 85 275 2.0 7.0 0.00 0.00 0.00 73 1017.2
20260903142023 85 263 2.0 10.0 0.00 0.00 0.00 73 1017.3
20260903141527 85 205 3.0 10.0 0.00 0.00 0.00 70 1017.3
20260903141012 85 261 2.0 5.0 0.00 0.00 0.00 72 1017.2
20260903140514 84 249 2.0 8.0 0.00 0.00 0.00 75 1017.4
20260903140028 84 266 3.0 8.0 0.00 0.00 0.00 73 1017.3
20260903135516 84 273 2.0 8.0 0.00 0.00 0.00 73 1017.4
20260903135016 84 267 3.0 8.0 0.00 0.00 0.00 72 1017.3
20260903134510 84 287 4.0 8.0 0.00 0.00 0.00 73 1017.3
20260903134005 84 284 2.0 8.0 0.00 0.00 0.00 74 1017.2
20260903133512 83 299 2.0 8.0 0.00 0.00 0.00 76 1017.2
20260903133020 83 274 2.0 8.0 0.00 0.00 0.00 75 1017.2
20260903132509 82 312 1.0 5.0 0.00 0.00 0.00 79 1017.3
20260903132011 82 163 2.0 5.0 0.00 0.00 0.00 78 1017.3
20260903131525 81 238 2.0 5.0 0.00 0.00 0.00 79 1017.3
20260903131012 81 219 2.0 6.0 0.00 0.00 0.00 80 1017.3
20260903130514 80 227 1.0 6.0 0.00 0.00 0.00 81 1017.3
20260903130030 80 171 2.0 5.0 0.00 0.00 0.00 81 1017.4
20260903125514 79 246 1.0 5.0 0.00 0.00 0.00 82 1017.4
20260903125003 79 168 2.0 5.0 0.00 0.00 0.00 83 1017.5
20260903124513 78 282 1.0 3.0 0.00 0.00 0.00 85 1017.4
20260903124005 77 290 0.0 2.0 0.00 0.00 0.00 86 1017.4
20260903123506 77 277 0.0 4.0 0.00 0.00 0.00 87 1017.4
20260903123014 76 321 0.0 4.0 0.00 0.00 0.00 87 1017.5
20260903122508 76 196 0.0 2.0 0.00 0.00 0.00 87 1017.6
20260903122009 75 215 0.0 2.0 0.00 0.00 0.00 88 1017.6
20260903121538 75 229 0.0 2.0 0.00 0.00 0.00 88 1017.5
20260903121009 75 191 0.0 3.0 0.00 0.00 0.00 88 1017.6
20260903120513 74 162 1.0 2.0 0.00 0.00 0.00 89 1017.4
20260903120026 74 239 1.0 2.0 0.00 0.00 0.00 90 1017.4
20260903115512 74 239 0.0 2.0 0.00 0.00 0.00 90 1017.4
20260903115012 74 239 0.0 2.0 0.00 0.00 0.00 90 1017.4
20260903114528 73 239 0.0 0.0 0.00 0.00 0.00 90 1017.4
20260903114003 73 239 0.0 0.0 0.00 0.00 0.00 90 1017.4
20260903113510 73 239 0.0 2.0 0.00 0.00 0.00 90 1017.3
20260903113015 74 239 0.0 2.0 0.00 0.00 0.00 90 1017.3
20260903112508 74 239 0.0 2.0 0.00 0.00 0.00 90 1017.3
20260903112008 74 239 0.0 2.0 0.00 0.00 0.00 90 1017.1
20260903111519 74 239 0.0 0.0 0.00 0.00 0.00 89 1017.2
20260903111008 74 239 0.0 2.0 0.00 0.00 0.00 89 1017.1
20260903110510 74 239 0.0 2.0 0.00 0.00 0.00 89 1016.9
20260903110023 74 239 0.0 2.0 0.00 0.00 0.00 88 1016.8
20260903105513 74 239 0.0 2.0 0.00 0.00 0.00 88 1016.9
20260903105013 75 239 0.0 2.0 0.00 0.00 0.00 88 1016.8
20260903104533 75 239 0.0 2.0 0.00 0.00 0.00 88 1016.7
20260903104017 75 285 0.0 2.0 0.00 0.00 0.00 88 1016.6
20260903103516 75 256 0.0 2.0 0.00 0.00 0.00 88 1016.6
20260903103033 75 201 0.0 2.0 0.00 0.00 0.00 88 1016.6
20260903102506 75 221 0.0 2.0 0.00 0.00 0.00 88 1016.6
20260903102008 75 185 0.0 2.0 0.00 0.00 0.00 88 1016.6
20260903101526 75 185 0.0 2.0 0.00 0.00 0.00 88 1016.7
20260903101006 75 219 0.0 2.0 0.00 0.00 0.00 88 1016.6
20260903100508 75 218 0.0 2.0 0.00 0.00 0.00 88 1016.6
20260903100028 75 218 0.0 2.0 0.00 0.00 0.00 88 1016.7
20260903095513 75 193 0.0 2.0 0.00 0.00 0.00 88 1016.6
20260903095015 75 193 0.0 2.0 0.00 0.00 0.00 88 1016.5
20260903094530 75 188 0.0 2.0 0.00 0.00 0.00 88 1016.6
20260903094016 75 240 0.0 2.0 0.00 0.00 0.00 88 1016.5
20260903093516 75 240 0.0 3.0 0.00 0.00 0.00 88 1016.5
20260903093031 75 240 0.0 3.0 0.00 0.00 0.00 88 1016.5
20260903092516 75 207 1.0 2.0 0.00 0.00 0.00 88 1016.4
20260903092016 75 196 1.0 2.0 0.00 0.00 0.00 89 1016.4
20260903091515 75 169 0.0 2.0 0.00 0.00 0.00 89 1016.3
20260903091006 75 169 0.0 2.0 0.00 0.00 0.00 89 1016.3
20260903090506 75 169 0.0 2.0 0.00 0.00 0.00 89 1016.3
20260903090017 75 169 0.0 2.0 0.00 0.00 0.00 88 1016.2
20260903085512 75 169 0.0 2.0 0.00 0.00 0.00 89 1016.2